[[[{"header":{"parameterUnit":"kt","parameterCategory":2,"dx":1,"dy":1,"la1":30.253999710083008,"la2":30.299108505249023,"lo1":-89.0895004272461,"lo2":-89.04439544677734,"nx":28,"ny":28,"refTime":"2022-09-26T21:00:00:Z","depth":0,"parameterNumber":1,"parameterNumberName":"U-component_of_WINDS"},"data":[-7.1836,-7.2032,-7.1996,-7.2202,-7.2204,-7.2339,-7.2375,-7.2418,-7.2442,-7.2597,-7.2679,-7.266,-7.2669,-7.2757,-7.2844,-7.2833,-7.2875,-7.297,-7.2943,-7.2547,-7.249,-7.2436,-7.2388,-7.2978,-7.2979,-7.336,-7.3363,-7.3366,-7.1546,-7.1551,-7.1649,-7.172,-7.1804,-7.1689,-7.1735,-7.1813,-7.1936,-7.1967,-7.2046,-7.2179,-7.2279,-7.2254,-7.2344,-7.2433,-7.2386,-7.2461,-7.2456,-7.246,-7.2034,-7.1985,-7.2498,-7.2498,-7.2498,-7.2498,-7.2498,-7.2497,-7.101,-7.113,-7.1151,-7.1258,-7.1283,-7.133,-7.1437,-7.1412,-7.1507,-7.1598,-7.1533,-7.1672,-7.1695,-7.1784,-7.1805,-7.1911,-7.1821,-7.1892,-7.1911,-7.1932,-7.1961,-7.1422,-7.1923,-7.1922,-7.192,-7.1919,-7.1918,0,-7.0608,-7.057,-7.0662,-7.0744,-7.0818,-7.0878,-7.0926,-7.099,-7.0894,-7.0977,-7.1093,-7.1154,-7.1273,-7.1379,-7.1454,-7.146,-7.1352,-7.1335,-7.1385,-7.1422,-7.1445,-7.1439,-7.0751,-7.1322,-7.1317,-7.1313,-7.1311,-7.1308,-7.0069,-7.0212,-7.0216,-7.0286,-7.0303,-7.0417,-7.0476,-7.0381,-7.0449,-7.0493,-7.0602,-7.0705,-7.0784,-7.0976,-7.0946,-7.1035,-7.0984,-7.1207,-7.0997,-7.1025,-7.0993,-7.0988,-7.1002,-7.1252,-7.1259,-7.1265,-7.127,0,-6.977,-6.9709,-6.9918,-6.9907,-6.9909,-7.0063,-7.0054,-7.0168,-7.013,-7.0283,-7.0313,-7.0256,-7.0372,-7.0305,-7.0423,-7.0385,-7.0638,-7.0583,-7.0629,-7.0617,-7.0813,-7.0797,-7.1453,-7.1535,-7.0917,-7.0922,-7.0927,0,-6.9289,-6.9479,-6.9377,-6.9502,-6.971,-6.9609,-6.9817,-6.9806,-6.9825,-6.9944,-6.9808,-6.9923,-6.9818,-6.9923,-6.9867,-7.006,-7.0081,-7.0065,-7.005,-7.0081,-7.0084,-7.0121,-7.0095,-7.0002,-6.9998,-6.9995,-6.9993,0,-6.8831,-6.8998,-6.9199,-6.9228,-6.9237,-6.9334,-6.9342,-6.9361,-6.9422,-6.9487,-6.9525,-6.9609,-6.9657,-6.9724,-6.9652,-6.9513,-6.9886,-6.968,-6.987,-6.9873,-6.9962,-6.9959,-7.055,-6.9989,-6.9988,-6.9987,-6.9985,0,-6.8435,-6.8505,-6.8805,-6.8809,-6.8857,-6.8989,-6.9065,-6.9162,-6.9194,-6.9167,-6.9218,-6.9121,-6.9283,-6.9083,-6.9305,-6.9144,-6.9198,-6.9196,-6.9208,-6.9225,-6.9005,-6.9354,-6.9919,-6.9978,-6.9231,-6.9225,-6.9219,0,-6.793,-6.8216,-6.8132,-6.8419,-6.8542,-6.8382,-6.8526,-6.8558,-6.8534,-6.8634,-6.8606,-6.8722,-6.8558,-6.8586,-6.8703,-6.8681,-6.8889,-6.865,-6.88,-6.8806,-6.8802,-6.9319,-6.9424,-6.9801,-6.9138,-6.9146,-6.9152,0,-6.7532,-6.7542,-6.76,-6.7628,-6.7655,-6.7757,-6.7922,-6.8014,-6.8086,-6.8135,-6.8273,-6.8431,-6.8315,-6.8362,-6.8292,-6.8419,-6.8745,-6.8278,-6.8278,-6.8369,-6.909,-6.9188,-6.9252,-6.867,-6.868,-6.8688,-6.9088,0,-6.6955,-6.709,-6.724,-6.7309,-6.7377,-6.7552,-6.7482,-6.7561,-6.7487,-6.7459,-6.7658,-6.7667,-6.7763,-6.7815,-6.7745,-6.8055,-6.7994,-6.787,-6.7676,-6.8014,-6.8144,-6.8197,-6.7486,-6.748,-6.7475,-6.7471,0,0,-6.649,-6.6682,-6.6586,-6.6743,-6.6795,-6.6628,-6.6822,-6.6852,-6.692,-6.696,-6.6849,-6.7077,-6.7091,-6.734,-6.744,-6.7477,-6.7528,-6.7413,-6.7852,-6.7895,-6.7935,-6.8075,-6.8131,-6.7462,-6.746,-6.7458,-6.7456,0,-6.6267,-6.6282,-6.6474,-6.6501,-6.6539,-6.6498,-6.6545,-6.6553,-6.6544,-6.6737,-6.6599,-6.671,-6.6895,-6.6929,-6.697,-6.7379,-6.7271,-6.7412,-6.7657,-6.7802,-6.7852,-6.7896,-6.8044,-6.8099,-6.7443,-6.7444,-6.7445,0,-6.5866,-6.5871,-6.5956,-6.6065,-6.6088,-6.6218,-6.5995,-6.6143,-6.6238,-6.6051,-6.6247,-6.6244,-6.6282,-6.6526,-6.6633,-6.6536,-6.7041,-6.6868,-6.6899,-6.6911,-6.7049,-6.7109,-6.7162,-6.6461,-6.6458,-6.6455,0,0,-6.5682,-6.5806,-6.5783,-6.6011,-6.6035,-6.5979,-6.6041,-6.5975,-6.6012,-6.6029,-6.6023,-6.6064,-6.617,-6.6243,-6.6339,-6.6616,-6.6618,-6.675,-6.6797,-6.6835,-6.6868,-6.7015,-6.7074,-6.6443,-6.6443,-6.6442,0,0,-6.5595,-6.5578,-6.5497,-6.5753,-6.5793,-6.5786,-6.5929,-6.583,-6.5909,-6.5882,-6.5777,-6.5784,-6.601,-6.6014,-6.5863,-6.6269,-6.6077,-6.6112,-6.626,-6.6318,-6.6363,-6.6361,-6.5639,0,0,0,0,0,-6.5332,-6.5579,-6.5506,-6.5538,-6.5676,-6.5826,-6.5843,-6.5763,-6.5628,-6.5743,-6.5722,-6.56,-6.591,-6.5775,-6.5809,-6.598,-6.6291,-6.6318,-6.6343,-6.6599,-6.666,-6.6712,0,0,0,0,0,0,-6.5344,-6.5384,-6.5499,-6.5504,-6.5534,-6.5817,-6.5572,-6.5556,-6.5614,-6.5588,-6.5608,-6.5601,-6.5535,-6.5751,-6.5784,-6.5948,-6.5628,-6.6301,-6.6324,-6.6345,-6.662,-6.667,-6.6713,0,0,0,0,0,-6.5353,-6.5385,-6.5628,-6.55,-6.5526,-6.5478,-6.5562,-6.5547,-6.559,-6.5559,-6.5548,-6.5524,-6.5542,-6.5564,-6.577,-6.5935,-6.5605,-6.5617,-6.6316,-6.6334,-6.635,-6.6644,0,0,0,0,0,0,-6.536,-6.5373,-6.5631,-6.5636,-6.5401,-6.546,-6.5467,-6.554,-6.5556,-6.5548,-6.5469,-6.5448,-6.555,-6.5565,-6.5583,-6.5936,-6.5587,-6.5599,-6.5607,-6.633,-6.6344,-6.6357,0,0,0,0,0,0,-6.5355,-6.5379,-6.5634,-6.5513,-6.5504,-6.5445,-6.5451,-6.5614,-6.5558,-6.5464,-6.5447,-6.546,-6.5524,-6.5568,-6.558,-6.5839,-6.5572,-6.5584,-6.5593,-6.5598,-6.6341,-6.6353,0,0,0,0,0,0,-6.5363,-6.5384,-6.5511,-6.5504,-6.5495,-6.5544,-6.5587,-6.5734,-6.5455,-6.5466,-6.5427,-6.5415,-6.5531,-6.5541,-6.558,-6.5834,-6.5838,-6.5573,-6.5581,-6.5587,-6.5591,0,0,0,0,0,0,0,-6.537,-6.5255,-6.5602,-6.5497,-6.5488,-6.5682,-6.5683,-6.5685,-6.5452,-6.5441,-6.543,-6.542,-6.5504,-6.5517,-6.5531,-6.583,0,0,-6.5572,-6.5577,0,0,0,0,0,0,0,0,-6.5245,-6.5253,-6.5602,-6.5603,-6.5604,-6.5682,-6.5683,-6.5684,-6.545,-6.5441,-6.5433,-6.5424,-6.5508,-6.5518,-6.5529,0,0,0,0,0,0,0,0,0,0,0,0,0,0,0,-6.5602,-6.5603,0,-6.5682,-6.5683,-6.5684,-6.5449,-6.5442,-6.5434,-6.5428,-6.5511,-6.5519,-6.5528,0,0,0,0,0,0,0,0,0,0,0,0,0,0,0,0,0,0,0,0,0,0,0,0,0,0,0,0,0,0,0,0,0,0,0,0,0,0,0,0,0,0,0,0,0,0,0,0,0,0,0,0,0,0,0,0,0,0,0,0,0,0,0,0,0,0,0,0,0]}],[{"header":{"parameterUnit":"kt","parameterCategory":2,"dx":1,"dy":1,"la1":30.253999710083008,"la2":30.299108505249023,"lo1":-89.0895004272461,"lo2":-89.04439544677734,"nx":28,"ny":28,"refTime":"2022-09-26T21:00:00:Z","depth":0,"parameterNumber":2,"parameterNumberName":"V-component_of_WINDS"},"data":[-16.1848,-16.2133,-16.2107,-16.2417,-16.2444,-16.2649,-16.2713,-16.2791,-16.2845,-16.3082,-16.3212,-16.3208,-16.3246,-16.339,-16.3525,-16.3518,-16.3578,-16.37,-16.3671,-16.3158,-16.3085,-16.3015,-16.2948,-16.3713,-16.3714,-16.4207,-16.4212,-16.4215,-16.1473,-16.1505,-16.1662,-16.1795,-16.1928,-16.1794,-16.1886,-16.2005,-16.219,-16.2258,-16.2384,-16.2588,-16.2744,-16.2739,-16.2881,-16.3008,-16.2951,-16.3048,-16.3039,-16.3046,-16.2496,-16.2426,-16.3092,-16.3092,-16.3092,-16.3092,-16.3092,-16.3092,-16.0782,-16.0955,-16.102,-16.1189,-16.1247,-16.1335,-16.1492,-16.1485,-16.1634,-16.1785,-16.1717,-16.1924,-16.1983,-16.2138,-16.2181,-16.2337,-16.2222,-16.2318,-16.2342,-16.2368,-16.2402,-16.1695,-16.2359,-16.2357,-16.2355,-16.2354,-16.2352,0,-16.0268,-16.0234,-16.0382,-16.0523,-16.0644,-16.0749,-16.0839,-16.0934,-16.0844,-16.0971,-16.115,-16.1247,-16.1437,-16.1599,-16.1724,-16.1747,-16.1617,-16.1599,-16.1665,-16.1703,-16.172,-16.1714,-16.082,-16.158,-16.1573,-16.1569,-16.1565,-16.1562,-15.9569,-15.9774,-15.9826,-15.9934,-15.9977,-16.0152,-16.0248,-16.0154,-16.026,-16.0353,-16.0506,-16.0668,-16.0793,-16.108,-16.1063,-16.1203,-16.114,-16.1435,-16.116,-16.1188,-16.1145,-16.1135,-16.1154,-16.149,-16.1499,-16.1507,-16.1513,0,-15.9178,-15.9131,-15.9437,-15.9468,-15.9481,-15.9698,-15.9721,-15.9886,-15.9859,-16.0082,-16.0128,-16.0085,-16.026,-16.0196,-16.0381,-16.0341,-16.069,-16.0625,-16.0669,-16.0653,-16.091,-16.0887,-16.1755,-16.1863,-16.1068,-16.1075,-16.1082,0,-15.8563,-15.8834,-15.8747,-15.8928,-15.9223,-15.9122,-15.9416,-15.9422,-15.9472,-15.9646,-15.9489,-15.9655,-15.9546,-15.9701,-15.9643,-15.9916,-15.995,-15.9936,-15.9918,-15.9952,-15.9954,-16.0005,-15.9968,-15.9867,-15.9863,-15.9859,-15.9855,0,-15.7957,-15.8227,-15.8519,-15.8573,-15.8631,-15.8769,-15.8799,-15.8853,-15.8949,-15.906,-15.912,-15.9256,-15.9331,-15.9437,-15.9362,-15.9178,-15.9694,-15.9426,-15.9679,-15.9682,-15.9797,-15.9792,-16.0575,-15.985,-15.9849,-15.9847,-15.9846,0,-15.7453,-15.7574,-15.8005,-15.8049,-15.8123,-15.8315,-15.8444,-15.8593,-15.8661,-15.8638,-15.8724,-15.8611,-15.8845,-15.8584,-15.8903,-15.8686,-15.8767,-15.8774,-15.8791,-15.8809,-15.8519,-15.8971,-15.9723,-15.98,-15.8824,-15.8815,-15.8808,0,-15.6772,-15.7195,-15.7111,-15.7521,-15.7707,-15.7519,-15.7728,-15.7795,-15.7781,-15.7932,-15.7913,-15.8087,-15.7879,-15.7924,-15.809,-15.8078,-15.836,-15.8037,-15.8253,-15.8262,-15.8242,-15.8934,-15.9063,-15.9565,-15.8698,-15.8709,-15.8717,0,-15.6238,-15.631,-15.639,-15.6445,-15.652,-15.6674,-15.6915,-15.7066,-15.7172,-15.7263,-15.746,-15.7701,-15.7553,-15.7629,-15.755,-15.7728,-15.8166,-15.7545,-15.7544,-15.7659,-15.8637,-15.8758,-15.8843,-15.8073,-15.8086,-15.8097,-15.863,0,-15.5488,-15.5693,-15.5905,-15.6036,-15.6144,-15.6397,-15.6332,-15.6454,-15.6368,-15.6348,-15.6636,-15.6672,-15.6823,-15.6901,-15.6818,-15.7246,-15.7164,-15.7004,-15.6745,-15.7199,-15.7373,-15.7444,-15.6491,-15.6483,-15.6476,-15.6471,0,0,-15.4848,-15.5141,-15.5041,-15.5274,-15.5359,-15.516,-15.5437,-15.5495,-15.5621,-15.5682,-15.5537,-15.5884,-15.592,-15.6276,-15.6413,-15.6474,-15.6543,-15.6387,-15.6984,-15.7041,-15.7094,-15.7282,-15.7357,-15.6459,-15.6456,-15.6454,-15.6452,0,-15.4562,-15.4609,-15.4886,-15.4943,-15.5025,-15.4991,-15.5057,-15.5102,-15.5101,-15.5385,-15.5214,-15.5378,-15.5658,-15.5718,-15.5785,-15.6342,-15.6203,-15.6393,-15.6716,-15.6918,-15.6984,-15.7043,-15.7241,-15.7314,-15.6435,-15.6436,-15.6437,0,-15.4024,-15.406,-15.4187,-15.4375,-15.4426,-15.4621,-15.4334,-15.4553,-15.4695,-15.4462,-15.4746,-15.4757,-15.4831,-15.5177,-15.533,-15.5202,-15.5898,-15.5666,-15.5706,-15.5722,-15.5914,-15.5994,-15.6065,-15.5126,-15.5122,-15.5118,0,0,-15.3785,-15.3975,-15.3982,-15.4308,-15.4352,-15.4305,-15.4401,-15.4327,-15.44,-15.4431,-15.4442,-15.4516,-15.4676,-15.4785,-15.4932,-15.5322,-15.5328,-15.5507,-15.5569,-15.562,-15.5663,-15.5868,-15.5948,-15.5102,-15.5101,-15.5101,0,0,-15.3669,-15.3692,-15.3594,-15.3964,-15.4042,-15.4068,-15.4268,-15.4147,-15.4274,-15.4237,-15.4117,-15.4132,-15.4454,-15.4471,-15.4264,-15.4838,-15.4583,-15.4631,-15.4816,-15.4893,-15.4954,-15.4943,-15.3973,0,0,0,0,0,-15.3343,-15.3688,-15.36,-15.3652,-15.3887,-15.4118,-15.4147,-15.4058,-15.388,-15.404,-15.403,-15.3874,-15.4334,-15.4148,-15.42,-15.4432,-15.4894,-15.4931,-15.4966,-15.5295,-15.5376,-15.5445,0,0,0,0,0,0,-15.3362,-15.3427,-15.359,-15.3633,-15.3684,-15.4105,-15.3783,-15.3768,-15.386,-15.3827,-15.3881,-15.3876,-15.3802,-15.4115,-15.4163,-15.4386,-15.3956,-15.4908,-15.494,-15.4968,-15.5323,-15.5389,-15.5446,0,0,0,0,0,-15.3378,-15.343,-15.3831,-15.3627,-15.3672,-15.3637,-15.3769,-15.3754,-15.3823,-15.3809,-15.3798,-15.3749,-15.3811,-15.3845,-15.4143,-15.4367,-15.3922,-15.394,-15.4929,-15.4953,-15.4975,-15.5355,0,0,0,0,0,0,-15.3389,-15.3416,-15.3838,-15.3848,-15.349,-15.3611,-15.3627,-15.3743,-15.3797,-15.3791,-15.3668,-15.3642,-15.3822,-15.3846,-15.3873,-15.4365,-15.3894,-15.3913,-15.3925,-15.4947,-15.4967,-15.4984,0,0,0,0,0,0,-15.3387,-15.3427,-15.3843,-15.3676,-15.3666,-15.3588,-15.3603,-15.3842,-15.38,-15.3653,-15.3632,-15.3656,-15.3779,-15.3849,-15.3869,-15.4246,-15.3873,-15.3891,-15.3903,-15.3911,-15.4963,-15.4978,0,0,0,0,0,0,-15.3402,-15.3436,-15.3672,-15.3665,-15.3655,-15.3763,-15.3797,-15.4042,-15.3661,-15.3653,-15.3624,-15.3607,-15.3786,-15.3804,-15.3867,-15.4237,-15.4244,-15.3874,-15.3886,-15.3895,-15.39,0,0,0,0,0,0,0,-15.3414,-15.3213,-15.3778,-15.3656,-15.3647,-15.3943,-15.3945,-15.3948,-15.3657,-15.3642,-15.3628,-15.3614,-15.3772,-15.3791,-15.3811,-15.423,0,0,-15.3872,-15.3881,0,0,0,0,0,0,0,0,-15.3196,-15.3209,-15.3779,-15.3781,-15.3783,-15.3943,-15.3945,-15.3947,-15.3655,-15.3643,-15.3631,-15.362,-15.3777,-15.3793,-15.3809,0,0,0,0,0,0,0,0,0,0,0,0,0,0,0,-15.3779,-15.3781,0,-15.3943,-15.3945,-15.3947,-15.3653,-15.3643,-15.3633,-15.3624,-15.3781,-15.3794,-15.3808,0,0,0,0,0,0,0,0,0,0,0,0,0,0,0,0,0,0,0,0,0,0,0,0,0,0,0,0,0,0,0,0,0,0,0,0,0,0,0,0,0,0,0,0,0,0,0,0,0,0,0,0,0,0,0,0,0,0,0,0,0,0,0,0,0,0,0,0,0]}]]]